Find Kuiper-00155

NORAD ID: 65774 Int'l Des: 2025-217 Owner: KUIP Country: US Constellation: amazon-leo operational
LEOCIRCULAR

現在のビュー

3D地球を読み込み中...

About Kuiper-00155

Kuiper-00155 (NORAD 65774) is a amazon-leo constellation satellite launched Sep 25, 2025 by KUIP of US. It operates in LEO, CIRCULAR orbit with a mass of 490.00 kg.

次回通過

Passes for default location (London). Set your location on the main map for personalized predictions.

高度履歴

Loading altitude history...

軌道要素

1 65774U 25217N 26236.54343163 .00003080 00000-0 43282-3 0 9997
2 65774 51.9036 335.8998 0000385 104.2206 255.8799 14.79937992 50360
Epoch: Aug 24, 2026 • Age: 23 hours

現在のステータス

高度 633.7 km
遠地点 / 近地点 N/A
速度 7.55 km/s
衛星直下点 44.06°N, 133.27°W
打ち上げ日 Sep 25, 2025
運用期間 0.9 years
タイプ internet

技術仕様

分類 Payload
質量 490.00 kg
乾燥質量 490.00 kg
総質量 490.00 kg
長さ 1.80 m
直径 0.70 m
スパン 5.00 m
形状 Box + 2 pan
製造者 KUIP
バスタイプ Kuiper
フェーズステータス In Orbit
所有者/国 KUIP/US

Most Searched